Location: 22
(39.7117°N, 89.5929°W)
Time: 09:12:27
(UTC-05:00)

Transit 2A - Pass Details

Date: 06 August 2024
Orbit: 590 x 961 km, 66.7° (Epoch: 13 September)

Event Time Altitude Azimuth Distance (km) Brightness Sun altitude
Rises 04:14:46 0° 184° (S) 3,149 - -18.4°
Reaches altitude 10° 04:17:10 10° 176° (S) 2,290 - -18.0°
Exits shadow 04:17:40 13° 173° (S) 2,121 8.0 -18.0°
Maximum altitude 04:22:00 37° 109° (ESE) 1,246 7.3 -17.3°
Drops below altitude 10° 04:27:19 10° 44° (NE) 2,533 10.0 -16.6°
Sets 04:30:05 0° 37° (NE) 3,527 11.0 -16.1°
